This is the latest recevied weather packets stored in our database for station/object W1GK. If no packets are shown the sender has not sent any weather packets the latest 10 day(s).
| Time | Temp. | Humidity | Pressure | Rain* | Wind** | Luminosity | Snow |
|---|---|---|---|---|---|---|---|
| 1778010000 | 22.22° C | 23% | 1010.9 hPa | 0 mm | - | 410 W/m² | - |
| 1778009400 | 22.22° C | 25% | 1010.9 hPa | 0 mm | - | 394 W/m² | - |
| 1778008800 | 22.22° C | 24% | 1011 hPa | 0 mm | - | 364 W/m² | - |
| 1778008200 | 21.67° C | 23% | 1011 hPa | 0 mm | - | 870 W/m² | - |
| 1778007602 | 21.67° C | 25% | 1011 hPa | 0 mm | - | 425 W/m² | - |
| 1778006998 | 21.67° C | 25% | 1011.1 hPa | 0 mm | - | 287 W/m² | - |
| 1778006400 | 21.11° C | 26% | 1011.2 hPa | 0 mm | - | 1058 W/m² | - |
| 1778005798 | 21.11° C | 26% | 1011.2 hPa | 0 mm | - | 309 W/m² | - |
| 1778005198 | 20.56° C | 26% | 1011.2 hPa | 0 mm | - | 265 W/m² | - |
| 1778004598 | 21.11° C | 26% | 1011.2 hPa | 0 mm | - | 262 W/m² | - |
| 1778003998 | 21.11° C | 26% | 1011.2 hPa | 0 mm | - | 854 W/m² | - |
| 1778003398 | 21.67° C | 27% | 1011.1 hPa | 0 mm | - | 861 W/m² | - |
| 1778002799 | 20.56° C | 28% | 1011.1 hPa | 0 mm | - | 870 W/m² | - |
| 1778002199 | 20.56° C | 28% | 1011.1 hPa | 0 mm | - | 816 W/m² | - |
| 1778001598 | 20° C | 29% | 1011.2 hPa | 0 mm | - | 707 W/m² | - |
| 1778000998 | 20° C | 29% | 1011.2 hPa | 0 mm | - | 731 W/m² | - |
| 1778000399 | 19.44° C | 29% | 1011.2 hPa | 0 mm | - | 527 W/m² | - |
| 1777999799 | 19.44° C | 30% | 1011.2 hPa | 0 mm | - | 694 W/m² | - |
| 1777999199 | 18.89° C | 31% | 1011.2 hPa | 0 mm | - | 633 W/m² | - |
| 1777998600 | 18.33° C | 33% | 1011.2 hPa | 0 mm | - | 687 W/m² | - |
| 1777998000 | 17.78° C | 33% | 1011.3 hPa | 0 mm | - | 471 W/m² | - |
| 1777997400 | 17.78° C | 34% | 1011.3 hPa | 0 mm | - | 503 W/m² | - |
| 1777996803 | 17.22° C | 36% | 1011.3 hPa | 0 mm | - | 571 W/m² | - |
| 1777996200 | 17.22° C | 36% | 1011.3 hPa | 0 mm | - | 450 W/m² | - |
| 1777995599 | 16.67° C | 38% | 1011.3 hPa | 0 mm | - | 554 W/m² | - |
* Rain latest hour (hover to see other rain measurements)
** Current wind speed in m/s (hover to see current wind gust speed)